Location: Auckland
(36.8670°S, 174.7670°E)
Time: 17:01:07
(UTC+13:00)

Resurs 01 Rocket - Pass Details

Date: 24 January 2019
Orbit: 635 x 643 km, 98.1° (Epoch: 19 February)

Event Time Altitude Azimuth Distance (km) Brightness Sun altitude
Rises 21:37:08 0° 154° (SSE) 2,973 5.2 -11.1°
Reaches altitude 10° 21:39:40 10° 141° (SE) 2,054 4.2 -11.5°
Maximum altitude 21:43:27 26° 84° (E) 1,259 2.7 -12.1°
Enters shadow 21:45:43 18° 41° (NE) 1,591 3.0 -12.5°
